Regional Weather Roundup
Issued by NWS

Home | Current Version | Previous Version | Text Only | Print | Product List | Glossary Off
Versions: 1 2 3 4 5 6 7 8 9 10 11 12 13 14 15 16 17 18 19 20 21 22 23 24 25 26 27 28 29 30 31 32 33 34 35 36 37 38 39 40 41 42 43 44 45 46 47 48 49 50

000
ASUS45 KBOU 260107
RWRCO

WEATHER ROUNDUP FOR COLORADO
NATIONAL WEATHER SERVICE DENVER/BOULDER CO
700 PM MDT WED MAR 25 2015

NOTE: "FAIR" INDICATES FEW OR NO CLOUDS BELOW 12000 FEET WITH NO
SIGNIFICANT WEATHER AND/OR OBSTRUCTIONS TO VISIBILITY.

COZ001>005-013-030-031-260200-
...NORTHWEST COLORADO...

CITY           SKY/WX    TMP DP  RH WIND       PRES   REMARKS
CRAIG          MOCLDY    43  16  33 NW6       30.26R
HAYDEN         MOCLDY    39  19  45 SW6       30.26R
MEEKER         PTCLDY    44  20  38 VRB3      30.26R
MOUNT WERNER   NOT AVBL
STEAMBOAT SPGS MOCLDY    32  29  90 E9        30.27R WCI  24
WALDEN         PTCLDY    30  23  74 NW5       30.25R WCI  25
$$

COZ006>008-011-260200-
...WEST CENTRAL VALLEYS...

CITY           SKY/WX    TMP DP  RH WIND       PRES   REMARKS
GRAND JUNCTION CLEAR     51  13  21 NE9       30.23R
MONTROSE       CLEAR     50  11  20 NW10      30.24R
EAGLE          PTCLDY    45  10  24 N8        30.27R
RIFLE          PTCLDY    47  17  30 NW7       30.26R
DELTA          CLEAR     53  12  19 NW13      30.23R
NUCLA          CLEAR     48   3  15 NE12G18   30.27R
$$

COZ017>023-064>068-260200-
...SOUTHWEST COLORADO...

CITY           SKY/WX    TMP DP  RH WIND       PRES   REMARKS
DURANGO        CLEAR     52   8  17 NW9       30.09R
CORTEZ         CLEAR     51   4  14 N17G26    30.18R
PAGOSA SPRINGS CLEAR     46   5  18 N7        30.16R
TELLURIDE      PTCLDY    33  12  40 CALM      30.27R
WOLF CREEK PAS CLEAR     21   3  45 NE23G31   30.25R WCI   5
$$

COZ009-010-012-014-032>034-037-058>063-260200-
...CENTRAL COLORADO...

CITY           SKY/WX    TMP DP  RH WIND       PRES   REMARKS
ASPEN          MOCLDY    36  20  52 N15       30.24R
BUENA VISTA    PTCLDY    37   4  25 NW16G25   30.21R
COPPER MTN     MOCLDY    19   9  63 W20G29    30.24R WCI   4
BERTHOUD PASS  LGT SNOW  10   3  72 MISG      30.21R
COTTONWOOD PAS PTCLDY    32   0  25 N3        30.23R
GUNNISON       PTCLDY    39   9  28 N10       30.25R
KREMMLING      PTCLDY    36  14  41 NW9       30.27R
LEADVILLE      MOCLDY    23   3  42 N12       30.23R WCI  12
SALIDA         PTCLDY    37  25  60 SE13G20   30.28R
SUNLIGHT       PTCLDY    25  12  58 W3        30.32R
WILKERSON PASS MOCLDY    19  14  79 SW3       30.25R
$$

COZ069>075-260200-
...SAN LUIS VALLEY/SANGRE DE CRISTO MOUNTAINS...

CITY           SKY/WX    TMP DP  RH WIND       PRES   REMARKS
ALAMOSA        CLEAR     43   6  21 N13       30.17R
LA VETA PASS   SNOW      21  19  93 MISG      30.24R VSB 1/2
SAGUACHE       CLEAR     41   3  20 NW17G30   30.19R
$$

COZ035-036-038>040-260200-
...NORTHERN COLORADO FRONT RANGE...

CITY           SKY/WX    TMP DP  RH WIND       PRES   REMARKS
DENVER INTL AP MOCLDY    40  28  62 W6        30.22R
DMNS CITY PARK   N/A     41  28  58 SW8G49    30.23R
AURORA         PTCLDY    39  30  68 SW9       30.23R
FRONT RANGE AP MOCLDY    41  32  70 SW7       30.23R
ERIE MUNI ARPT MOCLDY    44  26  49 CALM      30.22S
BOULDER MUN AP PTCLDY    43  28  56 CALM      30.22R
CENTENNIAL     PTCLDY    37  28  70 SW6       30.22S
BROOMFIELD     NOT AVBL
FORT COLLINS   CLOUDY    41  28  60 CALM      30.27R
LONGMONT       MOCLDY    45  30  55 E3        30.25R
$$

COZ041-046-047-076>085-087-088-260200-
...PIKES PEAK/PALMER DIVIDE AND SOUTHERN FOOTHILLS...

CITY           SKY/WX    TMP DP  RH WIND       PRES   REMARKS
COLO. SPRINGS  PTCLDY    38  24  57 NE8       30.25R
A. F. ACADEMY  MOCLDY    34  24  65 N7        30.24R WCI  28
ELLICOTT       PTCLDY   N/A N/A N/A N13       30.23R
FALCON         PTCLDY    33  25  70 N6        30.25R WCI  28
FORT CARSON    PTCLDY    39  25  56 CALM      30.24R
LIMON          PTCLDY    37  29  72 NW8       30.23R
MONUMENT HILL  PTCLDY    32  27  80 W6        30.23S WCI  26
TRINIDAD       CLOUDY    34  31  88 N8        30.27R WCI  27
$$

COZ042>045-048>051-090-091-260200-
...NORTHEAST COLORADO...

CITY           SKY/WX    TMP DP  RH WIND       PRES   REMARKS
GREELEY ARPT   CLOUDY    37  28  70 NW7       30.25R
AKRON          PTCLDY    40  28  62 E7        30.20R
BURLINGTON     MOCLDY    39  31  72 N9        30.21R
WRAY           CLEAR     44  25  46 N6        30.21R
STERLING       CLOUDY    46  27  46 NE6       30.19R
HOLYOKE        CLEAR     45  23  42 N7        30.20R
FORT MORGAN    CLOUDY    44  16  31 N7        30.21R
$$

COZ086-089-092>099-260200-
...SOUTHEAST COLORADO...

CITY           SKY/WX    TMP DP  RH WIND       PRES   REMARKS
PUEBLO         PTCLDY    43  31  62 NE5       30.25R
LA JUNTA       CLOUDY    43  32  65 N7        30.26R
LAMAR          CLOUDY    40  34  79 N13       30.23R
SPRINGFIELD      N/A     34  34 100 N15       30.22R WCI  24
$$


USA.gov is the U.S. government's official web portal to all federal, state and local government web resources and services.